Location: Newark
(40.4833°N, 25.5167°E)
Time: 13:44:52
(UTC+00:00)

Envisat - Visible Passes

Search period start: 20 October 2019 00:00
Search period end: 30 October 2019 00:00
Orbit: 764 x 766 km, 98.1° (Epoch: 20 October)

Date Brightness Start Highest point End Pass type
(mag) Time Alt. Az. Time Alt. Az. Time Alt. Az.
20 Oct 3.3 15:50:24 10° SE 15:55:11 44° ENE 16:00:00 10° N visible
20 Oct 5.5 17:30:35 10° SW 17:34:23 21° W 17:38:12 10° NW visible
21 Oct 6.2 04:00:57 10° NE 04:03:57 16° E 04:06:57 10° SE visible
21 Oct 4.1 16:52:31 10° S 16:57:23 47° W 17:02:17 10° NNW visible
22 Oct 2.9 16:15:32 10° SSE 16:20:36 78° ENE 16:25:41 10° N visible
22 Oct 6.2 17:58:30 10° WSW 18:00:11 11° W 18:01:50 10° WNW visible
23 Oct 5.2 17:18:47 10° SSW 17:23:02 27° W 17:27:18 10° NW visible
24 Oct 6.5 03:50:38 10° ENE 03:52:33 12° E 03:54:29 10° ESE visible
24 Oct 3.6 16:41:06 10° S 16:46:06 60° W 16:51:08 10° NNW visible
25 Oct 3.0 16:04:22 10° SSE 16:09:21 61° ENE 16:14:22 10° N visible
25 Oct 6.0 17:45:54 10° SW 17:48:46 15° W 17:51:39 10° NW visible
26 Oct 4.7 17:07:08 10° SSW 17:11:41 33° W 17:16:17 10° NNW visible
27 Oct 3.2 16:29:45 10° S 16:34:49 76° WSW 16:39:55 10° NNW visible
28 Oct 3.2 15:53:16 10° SE 15:58:07 48° ENE 16:03:01 10° N visible
28 Oct 5.6 17:33:49 10° SW 17:37:24 19° W 17:40:59 10° NW visible
29 Oct 6.1 04:03:39 10° NE 04:06:58 17° E 04:10:15 10° SE visible
29 Oct 4.3 16:55:34 10° S 17:00:22 42° W 17:05:12 10° NNW visible
